Location: Hesters Ferry
(33.9426°N, 82.5501°W)
Time: 19:21:11
(UTC+00:00)

ARIANE 6 FM1 Upper Stage - Pass Details

Date: 16 June 2025
Orbit: 528 x 612 km, 62.0° (Epoch: 20 July)

Event Time Altitude Azimuth Distance (km) Brightness Sun altitude
Rises 03:37:43 0° 307° (NW) 2,752 7.2 -26.7°
Reaches altitude 10° 03:40:34 10° 286° (WNW) 1,870 5.8 -27.0°
Enters shadow 03:42:37 16° 258° (WSW) 1,529 5.0 -27.2°
